• In Portugal
  • List of Countries
  • For 7 days
  • Water Temperature
  • Satellite Maps
  • Weather Map
  • Weather Widgets
  • user-avatar
    Login

    Hourly Weather Jalalabad

    Today, 23 January, Tuesday

    Time Temperature Precipitation Wind Pressure Humidity
    00:00 +10°C° 0 mm 2 mps 706 mmHg 20%
    01:00 +10°C° 0 mm 2 mps 706 mmHg 19%
    02:00 +10°C° 0 mm 2 mps 706 mmHg 18%
    03:00 +9°C° 0 mm 2 mps 707 mmHg 17%
    04:00 +9°C° 0 mm 2 mps 707 mmHg 17%
    05:00 +9°C° 0 mm 3 mps 706 mmHg 17%
    06:00 +9°C° 0 mm 2 mps 707 mmHg 18%
    07:00 +9°C° 0 mm 2 mps 707 mmHg 19%
    08:00 +9°C° 0 mm 2 mps 707 mmHg 20%
    09:00 +12°C° 0 mm 2 mps 707 mmHg 18%
    10:00 +14°C° 0 mm 2 mps 707 mmHg 16%
    11:00 +15°C° 0 mm 2 mps 707 mmHg 15%
    12:00 +16°C° 0 mm 2 mps 706 mmHg 14%
    13:00 +17°C° 0 mm 2 mps 706 mmHg 14%
    14:00 +17°C° 0 mm 2 mps 705 mmHg 13%
    15:00 +17°C° 0 mm 2 mps 705 mmHg 14%
    16:00 +16°C° 0 mm 2 mps 705 mmHg 15%
    17:00 +16°C° 0 mm 1 mps 705 mmHg 16%
    18:00 +14°C° 0 mm 1 mps 706 mmHg 18%
    19:00 +13°C° 0 mm 1 mps 706 mmHg 19%
    20:00 +11°C° 0 mm 1 mps 706 mmHg 21%
    21:00 +11°C° 0 mm 1 mps 706 mmHg 21%
    22:00 +11°C° 0 mm 1 mps 706 mmHg 21%
    23:00 +10°C° 0 mm 1 mps 706 mmHg 22%

    Tomorrow, 24 January, Wednesday

    Time Temperature Precipitation Wind Pressure Humidity
    00:00 +10°C° 0 mm 1 mps 706 mmHg 22%
    01:00 +10°C° 0 mm 1 mps 706 mmHg 21%
    02:00 +10°C° 0 mm 1 mps 706 mmHg 21%
    03:00 +9°C° 0 mm 1 mps 706 mmHg 21%
    04:00 +9°C° 0 mm 1 mps 705 mmHg 21%
    05:00 +9°C° 0 mm 1 mps 705 mmHg 21%
    06:00 +9°C° 0 mm 1 mps 706 mmHg 21%
    07:00 +9°C° 0 mm 1 mps 706 mmHg 21%
    08:00 +9°C° 0 mm 1 mps 706 mmHg 21%
    09:00 +11°C° 0 mm 1 mps 706 mmHg 18%
    10:00 +13°C° 0 mm 1 mps 707 mmHg 16%
    11:00 +15°C° 0 mm 1 mps 707 mmHg 14%
    12:00 +16°C° 0 mm 1 mps 707 mmHg 14%
    13:00 +16°C° 0 mm 2 mps 706 mmHg 14%
    14:00 +17°C° 0 mm 2 mps 706 mmHg 14%
    15:00 +16°C° 0 mm 2 mps 706 mmHg 16%
    16:00 +16°C° 0 mm 1 mps 706 mmHg 17%
    17:00 +15°C° 0 mm 1 mps 706 mmHg 19%
    18:00 +14°C° 0 mm 1 mps 707 mmHg 21%
    19:00 +12°C° 0 mm 1 mps 707 mmHg 23%
    20:00 +11°C° 0 mm 1 mps 708 mmHg 26%
    21:00 +10°C° 0 mm 1 mps 708 mmHg 26%
    22:00 +10°C° 0 mm 1 mps 708 mmHg 26%
    23:00 +10°C° 0 mm 1 mps 708 mmHg 26%

    Day after tomorrow, 25 January, Thursday

    Time Temperature Precipitation Wind Pressure Humidity
    00:00 +9°C° 0 mm 1 mps 708 mmHg 26%
    01:00 +9°C° 0 mm 1 mps 708 mmHg 26%
    02:00 +9°C° 0 mm 1 mps 708 mmHg 27%
    03:00 +8°C° 0 mm 1 mps 708 mmHg 26%
    04:00 +8°C° 0 mm 1 mps 707 mmHg 26%
    05:00 +8°C° 0 mm 1 mps 707 mmHg 26%
    06:00 +8°C° 0 mm 1 mps 707 mmHg 25%
    07:00 +8°C° 0 mm 1 mps 708 mmHg 25%
    08:00 +8°C° 0 mm 1 mps 708 mmHg 24%
    09:00 +11°C° 0 mm 1 mps 708 mmHg 21%
    10:00 +13°C° 0 mm 1 mps 708 mmHg 18%
    11:00 +15°C° 0 mm 2 mps 708 mmHg 15%
    12:00 +16°C° 0 mm 2 mps 708 mmHg 15%
    13:00 +17°C° 0 mm 2 mps 707 mmHg 14%
    14:00 +17°C° 0 mm 2 mps 706 mmHg 14%
    15:00 +17°C° 0 mm 2 mps 707 mmHg 15%
    16:00 +18°C° 0 mm 1 mps 707 mmHg 17%
    17:00 +16°C° 0 mm 1 mps 707 mmHg 18%
    18:00 +15°C° 0 mm 1 mps 707 mmHg 20%
    19:00 +13°C° 0 mm 2 mps 708 mmHg 22%
    20:00 +12°C° 0 mm 2 mps 708 mmHg 24%
    21:00 +12°C° 0 mm 2 mps 708 mmHg 24%
    22:00 +10°C° 0 mm 2 mps 709 mmHg 24%
    23:00 +10°C° 0 mm 2 mps 709 mmHg 25%

    26 January, Friday

    Time Temperature Precipitation Wind Pressure Humidity
    00:00 +9°C° 0 mm 2 mps 709 mmHg 25%
    01:00 +9°C° 0 mm 2 mps 709 mmHg 25%
    02:00 +9°C° 0 mm 2 mps 709 mmHg 26%
    03:00 +8°C° 0 mm 2 mps 709 mmHg 26%
    04:00 +8°C° 0 mm 2 mps 709 mmHg 26%
    05:00 +8°C° 0 mm 2 mps 709 mmHg 26%
    06:00 +8°C° 0 mm 2 mps 709 mmHg 26%
    07:00 +8°C° 0 mm 2 mps 709 mmHg 26%
    08:00 +8°C° 0 mm 2 mps 710 mmHg 25%
    09:00 +10°C° 0 mm 2 mps 710 mmHg 22%
    10:00 +13°C° 0 mm 2 mps 709 mmHg 19%
    11:00 +16°C° 0 mm 2 mps 709 mmHg 16%
    12:00 +16°C° 0 mm 2 mps 709 mmHg 15%
    13:00 +17°C° 0 mm 2 mps 708 mmHg 15%
    14:00 +18°C° 0 mm 2 mps 707 mmHg 14%
    15:00 +17°C° 0 mm 2 mps 707 mmHg 15%
    16:00 +17°C° 0 mm 2 mps 707 mmHg 16%
    17:00 +16°C° 0 mm 1 mps 707 mmHg 18%
    18:00 +15°C° 0 mm 1 mps 708 mmHg 20%
    19:00 +13°C° 0 mm 2 mps 708 mmHg 22%
    20:00 +12°C° 0 mm 2 mps 709 mmHg 24%
    21:00 +12°C° 0 mm 2 mps 709 mmHg 24%
    22:00 +10°C° 0 mm 2 mps 709 mmHg 25%
    23:00 +10°C° 0 mm 2 mps 709 mmHg 25%

    27 January, Saturday

    Time Temperature Precipitation Wind Pressure Humidity
    00:00 +9°C° 0 mm 2 mps 709 mmHg 25%
    01:00 +9°C° 0 mm 2 mps 709 mmHg 25%
    02:00 +9°C° 0 mm 2 mps 708 mmHg 25%
    03:00 +8°C° 0 mm 2 mps 708 mmHg 25%
    04:00 +8°C° 0 mm 2 mps 708 mmHg 25%
    05:00 +8°C° 0 mm 2 mps 708 mmHg 25%
    06:00 +8°C° 0 mm 2 mps 708 mmHg 25%
    07:00 +8°C° 0 mm 2 mps 708 mmHg 25%
    08:00 +8°C° 0 mm 2 mps 709 mmHg 25%
    09:00 +10°C° 0 mm 2 mps 708 mmHg 22%
    10:00 +13°C° 0 mm 1 mps 708 mmHg 19%
    11:00 +15°C° 0 mm 1 mps 708 mmHg 17%
    12:00 +15°C° 0 mm 1 mps 707 mmHg 16%
    13:00 +16°C° 0 mm 1 mps 707 mmHg 16%
    14:00 +17°C° 0 mm 2 mps 706 mmHg 15%
    15:00 +16°C° 0 mm 2 mps 706 mmHg 16%
    16:00 +16°C° 0 mm 2 mps 706 mmHg 17%
    17:00 +16°C° 0 mm 2 mps 706 mmHg 19%
    18:00 +14°C° 0 mm 2 mps 707 mmHg 21%
    19:00 +13°C° 0 mm 1 mps 707 mmHg 23%
    20:00 +11°C° 0 mm 1 mps 708 mmHg 26%
    21:00 +11°C° 0 mm 1 mps 708 mmHg 26%
    22:00 +11°C° 0 mm 1 mps 708 mmHg 27%
    23:00 +10°C° 0 mm 1 mps 708 mmHg 27%

    28 January, Sunday

    Time Temperature Precipitation Wind Pressure Humidity
    00:00 +10°C° 0 mm 1 mps 708 mmHg 28%
    01:00 +9°C° 0 mm 1 mps 708 mmHg 28%
    02:00 +9°C° 0 mm 1 mps 708 mmHg 28%
    03:00 +9°C° 0 mm 1 mps 707 mmHg 29%
    04:00 +8°C° 0 mm 1 mps 707 mmHg 29%
    05:00 +8°C° 0 mm 1 mps 707 mmHg 29%
    06:00 +8°C° 0 mm 1 mps 707 mmHg 29%
    07:00 +8°C° 0 mm 1 mps 708 mmHg 29%
    08:00 +9°C° 0 mm 1 mps 708 mmHg 29%
    09:00 +10°C° 0 mm 1 mps 708 mmHg 26%
    10:00 +12°C° 0 mm 1 mps 708 mmHg 22%
    11:00 +14°C° 0 mm 1 mps 708 mmHg 19%
    12:00 +15°C° 0 mm 1 mps 708 mmHg 19%
    13:00 +15°C° 0 mm 2 mps 707 mmHg 19%
    14:00 +16°C° 0 mm 2 mps 707 mmHg 19%
    15:00 +16°C° 0 mm 2 mps 707 mmHg 20%
    16:00 +15°C° 0 mm 2 mps 707 mmHg 21%
    17:00 +15°C° 0 mm 2 mps 707 mmHg 22%
    18:00 +14°C° 0 mm 1 mps 707 mmHg 23%
    19:00 +14°C° 0 mm 1 mps 708 mmHg 25%
    20:00 +13°C° 0 mm 1 mps 708 mmHg 27%
    21:00 +13°C° 0 mm 1 mps 709 mmHg 28%
    22:00 +12°C° 0 mm 1 mps 709 mmHg 29%
    23:00 +12°C° 0 mm 1 mps 709 mmHg 31%
    Show more